sat.trackr.live / text

‹ back to catalog

STARLINK-5952

NORAD 56923 · 2023-083AZ

PAYLOAD ACTIVE UNKNOWN

§ Identity

Operator
Country
US
Launch date
2023-06-12
Launch site
AFETR
Launch vehicle
Mass (kg)
RCS (m²)

Purposes: comms

External: N2YO · Heavens-Above · Gunter

§ Orbital elements

Epoch: 2026-09-20T16:42:08.846208Z

Period
94.27 min
Inclination
43.0035°
Eccentricity
0.0001192
Mean motion
15.27578173 rev/d
Perigee alt
482.2 km
Apogee alt
483.9 km
Semi-major
6,861.2 km
B*
1.5869e-5
RAAN
49.2255°
Arg perigee
255.7142°
Mean anomaly
104.3578°
Rev number
18,162

§ Raw data

STARLINK-59521 56923U 23083AZ  26263.69593572  .00000175  00000+0  15869-4 0  99912 56923  43.0035  49.2255 0001192 255.7142 104.3578 15.27578173181620

JSON: /api/v1/satellites/56923 · /tle

For live sub-satellite position, see the globe view (requires WebGL).

§ Visibility from observer

Set your observer location to see the next 7 days of passes ≥ 10°. The values pass through the URL so the page stays shareable.

No JS? Fill the form by hand. The geolocation button needs JavaScript.